Tracking 28790 objects as of 19-Apr-2024
HD Live streaming from Space Station
objects crossing your sky now

OPS 4682 DEB

Track OPS 4682 DEB now!
10-day predictions


NORAD ID: 26733
Int'l Code: 1965-027BG
Perigee: 1,266.0 km
Apogee: 1,319.1 km
Inclination: 90.2 °
Period: 111.3 minutes
Semi major axis: 7663 km
RCS: 0.0115 m2 (small)
Launch date: April 3, 1965
Source: United States (US)
Launch site: AIR FORCE WESTERN TEST RANGE (AFWTR)

Note: This is SATELLITE DEBRIS
Your satellite tracking list
Your tracking list is empty




NASA's NSSDC Master Catalog

Two Line Element Set (TLE):
1 26733U 65027BG  24110.10904266  .00000179  00000-0  61866-3 0  9994
2 26733  90.2460 348.9210 0034678 129.1643  25.4738 12.94066966 95850
Source of the keplerian elements: AFSPC